| time (UTC) | temp F | wind direction | speed MPH | gust MPH | rain 1hr in | rain 24hr in | rain mn in | humidity % | barometer mb |
| 20260504043521 | 50 | 110 | 0.0 | 2.0 | 0.00 | 0.00 | 0.00 | 76 | 1017.7 |
| 20260504043041 | 51 | 130 | 1.0 | 2.0 | 0.00 | 0.00 | 0.00 | 76 | 1017.6 |
| 20260504042522 | 51 | 0 | 0.0 | 2.0 | 0.00 | 0.00 | 0.00 | 75 | 1017.7 |
| 20260504042022 | 51 | 0 | 0.0 | 2.0 | 0.00 | 0.00 | 0.00 | 74 | 1017.7 |
| 20260504041546 | 51 | 129 | 0.0 | 2.0 | 0.00 | 0.00 | 0.00 | 73 | 1017.8 |
| 20260504041021 | 52 | 0 | 0.0 | 0.0 | 0.00 | 0.00 | 0.00 | 72 | 1017.7 |
| 20260504040523 | 52 | 0 | 0.0 | 2.0 | 0.00 | 0.00 | 0.00 | 73 | 1017.7 |
| 20260504040047 | 52 | 0 | 0.0 | 2.0 | 0.00 | 0.00 | 0.00 | 73 | 1017.6 |
| 20260504035523 | 52 | 0 | 0.0 | 2.0 | 0.00 | 0.00 | 0.00 | 73 | 1017.7 |
| 20260504035024 | 52 | 0 | 0.0 | 2.0 | 0.00 | 0.00 | 0.00 | 73 | 1017.7 |
| 20260504034540 | 53 | 132 | 1.0 | 4.0 | 0.00 | 0.00 | 0.00 | 73 | 1017.6 |
| 20260504034027 | 53 | 121 | 1.0 | 4.0 | 0.00 | 0.00 | 0.00 | 73 | 1017.6 |
| 20260504033523 | 53 | 121 | 2.0 | 3.0 | 0.00 | 0.00 | 0.00 | 73 | 1017.5 |
| 20260504033042 | 53 | 103 | 1.0 | 3.0 | 0.00 | 0.00 | 0.00 | 72 | 1017.7 |
| 20260504032523 | 53 | 116 | 1.0 | 3.0 | 0.00 | 0.00 | 0.00 | 72 | 1017.7 |
| 20260504032021 | 53 | 117 | 0.0 | 2.0 | 0.00 | 0.00 | 0.00 | 70 | 1017.7 |
| 20260504031550 | 54 | 0 | 0.0 | 2.0 | 0.00 | 0.00 | 0.00 | 70 | 1017.7 |
| 20260504031021 | 54 | 169 | 0.0 | 2.0 | 0.00 | 0.00 | 0.00 | 70 | 1017.7 |
| 20260504030521 | 54 | 244 | 0.0 | 2.0 | 0.00 | 0.00 | 0.00 | 70 | 1017.6 |
| 20260504030045 | 54 | 285 | 0.0 | 2.0 | 0.00 | 0.00 | 0.00 | 70 | 1017.4 |
| 20260504025521 | 54 | 225 | 0.0 | 3.0 | 0.00 | 0.00 | 0.00 | 70 | 1017.3 |
| 20260504025020 | 54 | 184 | 1.0 | 3.0 | 0.00 | 0.00 | 0.00 | 70 | 1017.2 |
| 20260504024544 | 55 | 107 | 1.0 | 3.0 | 0.00 | 0.00 | 0.00 | 70 | 1017.2 |
| 20260504024021 | 55 | 138 | 1.0 | 4.0 | 0.00 | 0.00 | 0.00 | 69 | 1017.2 |
| 20260504023523 | 55 | 103 | 2.0 | 4.0 | 0.00 | 0.00 | 0.00 | 69 | 1017.2 |
| 20260504023041 | 55 | 118 | 3.0 | 4.0 | 0.00 | 0.00 | 0.00 | 70 | 1017.3 |
| 20260504022524 | 55 | 106 | 1.0 | 3.0 | 0.00 | 0.00 | 0.00 | 70 | 1017.2 |
| 20260504022024 | 55 | 112 | 1.0 | 2.0 | 0.00 | 0.00 | 0.00 | 69 | 1017.4 |
| 20260504021537 | 55 | 121 | 1.0 | 2.0 | 0.00 | 0.00 | 0.00 | 69 | 1017.2 |
| 20260504021023 | 56 | 119 | 0.0 | 2.0 | 0.00 | 0.00 | 0.00 | 68 | 1017.2 |
| 20260504020520 | 56 | 128 | 1.0 | 2.0 | 0.00 | 0.00 | 0.00 | 68 | 1017.1 |
| 20260504020038 | 56 | 130 | 1.0 | 2.0 | 0.00 | 0.00 | 0.00 | 67 | 1017.1 |
| 20260504015521 | 57 | 121 | 0.0 | 2.0 | 0.00 | 0.00 | 0.00 | 66 | 1017.1 |
| 20260504015021 | 57 | 130 | 0.0 | 2.0 | 0.00 | 0.00 | 0.00 | 64 | 1017.1 |
| 20260504014545 | 58 | 128 | 0.0 | 2.0 | 0.00 | 0.00 | 0.00 | 63 | 1017.1 |
| 20260504014022 | 58 | 152 | 0.0 | 3.0 | 0.00 | 0.00 | 0.00 | 62 | 1017.0 |
| 20260504013522 | 59 | 162 | 1.0 | 3.0 | 0.00 | 0.00 | 0.00 | 61 | 1017.0 |
| 20260504013046 | 59 | 136 | 1.0 | 3.0 | 0.00 | 0.00 | 0.00 | 60 | 1017.0 |
| 20260504012521 | 60 | 129 | 1.0 | 3.0 | 0.00 | 0.00 | 0.00 | 59 | 1016.9 |
| 20260504012024 | 60 | 105 | 1.0 | 3.0 | 0.00 | 0.00 | 0.00 | 58 | 1016.9 |
| 20260504011542 | 60 | 94 | 2.0 | 3.0 | 0.00 | 0.00 | 0.00 | 57 | 1016.7 |
| 20260504011021 | 61 | 128 | 2.0 | 3.0 | 0.00 | 0.00 | 0.00 | 56 | 1016.7 |
| 20260504010521 | 61 | 142 | 1.0 | 3.0 | 0.00 | 0.00 | 0.00 | 55 | 1016.7 |
| 20260504010040 | 61 | 102 | 0.0 | 3.0 | 0.00 | 0.00 | 0.00 | 54 | 1016.7 |
| 20260504005524 | 62 | 129 | 1.0 | 3.0 | 0.00 | 0.00 | 0.00 | 52 | 1016.6 |
| 20260504005021 | 62 | 0 | 0.0 | 2.0 | 0.00 | 0.00 | 0.00 | 52 | 1016.7 |
| 20260504004540 | 63 | 0 | 0.0 | 2.0 | 0.00 | 0.00 | 0.00 | 51 | 1016.5 |
| 20260504004024 | 63 | 198 | 0.0 | 2.0 | 0.00 | 0.00 | 0.00 | 50 | 1016.5 |
| 20260504003523 | 63 | 262 | 0.0 | 2.0 | 0.00 | 0.00 | 0.00 | 50 | 1016.5 |
| 20260504003037 | 64 | 194 | 0.0 | 3.0 | 0.00 | 0.00 | 0.00 | 49 | 1016.5 |
| 20260504002523 | 64 | 183 | 1.0 | 3.0 | 0.00 | 0.00 | 0.00 | 48 | 1016.4 |
| 20260504002020 | 64 | 250 | 1.0 | 3.0 | 0.00 | 0.00 | 0.00 | 47 | 1016.4 |
| 20260504001545 | 65 | 200 | 1.0 | 3.0 | 0.00 | 0.00 | 0.00 | 47 | 1016.4 |
| 20260504001020 | 65 | 235 | 0.0 | 2.0 | 0.00 | 0.00 | 0.00 | 46 | 1016.4 |
| 20260504000524 | 65 | 181 | 0.0 | 3.0 | 0.00 | 0.00 | 0.00 | 45 | 1016.4 |
| 20260504000037 | 66 | 0 | 0.0 | 3.0 | 0.00 | 0.00 | 0.00 | 45 | 1016.4 |
| 20260503235527 | 66 | 141 | 1.0 | 7.0 | 0.00 | 0.00 | 0.00 | 44 | 1016.4 |
| 20260503235023 | 66 | 209 | 1.0 | 7.0 | 0.00 | 0.00 | 0.00 | 43 | 1016.4 |
| 20260503234601 | 67 | 199 | 2.0 | 7.0 | 0.00 | 0.00 | 0.00 | 43 | 1016.4 |
| 20260503234023 | 67 | 175 | 1.0 | 3.0 | 0.00 | 0.00 | 0.00 | 42 | 1016.4 |
| 20260503233521 | 67 | 175 | 1.0 | 4.0 | 0.00 | 0.00 | 0.00 | 42 | 1016.4 |
| 20260503233045 | 67 | 87 | 1.0 | 7.0 | 0.00 | 0.00 | 0.00 | 41 | 1016.5 |
| 20260503232523 | 68 | 132 | 2.0 | 7.0 | 0.00 | 0.00 | 0.00 | 41 | 1016.6 |
| 20260503232024 | 68 | 115 | 3.0 | 7.0 | 0.00 | 0.00 | 0.00 | 39 | 1016.6 |
| 20260503231541 | 68 | 215 | 1.0 | 6.0 | 0.00 | 0.00 | 0.00 | 40 | 1016.8 |
| 20260503231028 | 69 | 163 | 2.0 | 6.0 | 0.00 | 0.00 | 0.00 | 39 | 1016.7 |
| 20260503230526 | 69 | 270 | 2.0 | 6.0 | 0.00 | 0.00 | 0.00 | 39 | 1016.7 |
| 20260503230040 | 69 | 328 | 2.0 | 6.0 | 0.00 | 0.00 | 0.00 | 39 | 1016.8 |
| 20260503225521 | 69 | 169 | 2.0 | 5.0 | 0.00 | 0.00 | 0.00 | 38 | 1016.9 |
| 20260503225023 | 69 | 333 | 2.0 | 5.0 | 0.00 | 0.00 | 0.00 | 38 | 1016.8 |
| 20260503224550 | 70 | 285 | 3.0 | 5.0 | 0.00 | 0.00 | 0.00 | 37 | 1017.0 |
| 20260503224021 | 70 | 239 | 2.0 | 5.0 | 0.00 | 0.00 | 0.00 | 37 | 1016.9 |
| 20260503223520 | 70 | 222 | 1.0 | 8.0 | 0.00 | 0.00 | 0.00 | 37 | 1017.0 |
| 20260503223045 | 70 | 301 | 3.0 | 8.0 | 0.00 | 0.00 | 0.00 | 36 | 1016.9 |
| 20260503222520 | 70 | 299 | 3.0 | 5.0 | 0.00 | 0.00 | 0.00 | 36 | 1016.9 |
| 20260503222023 | 70 | 200 | 1.0 | 7.0 | 0.00 | 0.00 | 0.00 | 36 | 1016.9 |
| 20260503221554 | 70 | 261 | 2.0 | 7.0 | 0.00 | 0.00 | 0.00 | 36 | 1016.9 |
| 20260503221020 | 70 | 340 | 2.0 | 10.0 | 0.00 | 0.00 | 0.00 | 35 | 1017.0 |
| 20260503220521 | 70 | 305 | 0.0 | 10.0 | 0.00 | 0.00 | 0.00 | 36 | 1016.9 |
| 20260503220041 | 70 | 335 | 4.0 | 10.0 | 0.00 | 0.00 | 0.00 | 35 | 1017.0 |
| 20260503215523 | 70 | 317 | 2.0 | 8.0 | 0.00 | 0.00 | 0.00 | 35 | 1017.0 |
| 20260503215024 | 70 | 254 | 2.0 | 9.0 | 0.00 | 0.00 | 0.00 | 36 | 1017.1 |
| 20260503214540 | 70 | 291 | 4.0 | 9.0 | 0.00 | 0.00 | 0.00 | 34 | 1017.1 |
| 20260503214020 | 70 | 300 | 2.0 | 6.0 | 0.00 | 0.00 | 0.00 | 33 | 1017.0 |
| 20260503213524 | 71 | 182 | 2.0 | 5.0 | 0.00 | 0.00 | 0.00 | 32 | 1017.1 |
| 20260503213042 | 71 | 150 | 1.0 | 10.0 | 0.00 | 0.00 | 0.00 | 34 | 1017.2 |
| 20260503212525 | 70 | 354 | 3.0 | 10.0 | 0.00 | 0.00 | 0.00 | 32 | 1017.3 |
| 20260503212024 | 71 | 287 | 3.0 | 10.0 | 0.00 | 0.00 | 0.00 | 33 | 1017.4 |
| 20260503211547 | 70 | 298 | 2.0 | 7.0 | 0.00 | 0.00 | 0.00 | 34 | 1017.4 |
| 20260503211023 | 70 | 318 | 1.0 | 6.0 | 0.00 | 0.00 | 0.00 | 32 | 1017.5 |
| 20260503210523 | 70 | 101 | 2.0 | 11.0 | 0.00 | 0.00 | 0.00 | 32 | 1017.6 |
| 20260503210043 | 71 | 283 | 3.0 | 11.0 | 0.00 | 0.00 | 0.00 | 30 | 1017.7 |
| 20260503205524 | 70 | 344 | 3.0 | 11.0 | 0.00 | 0.00 | 0.00 | 32 | 1017.8 |
| 20260503205023 | 71 | 326 | 8.0 | 11.0 | 0.00 | 0.00 | 0.00 | 31 | 1017.8 |
| 20260503204544 | 71 | 17 | 3.0 | 9.0 | 0.00 | 0.00 | 0.00 | 30 | 1017.8 |
| 20260503204022 | 71 | 284 | 3.0 | 8.0 | 0.00 | 0.00 | 0.00 | 30 | 1017.9 |
| 20260503203523 | 71 | 311 | 3.0 | 9.0 | 0.00 | 0.00 | 0.00 | 30 | 1017.9 |
| 20260503203053 | 71 | 282 | 4.0 | 9.0 | 0.00 | 0.00 | 0.00 | 31 | 1018.0 |
| 20260503202524 | 70 | 275 | 3.0 | 11.0 | 0.00 | 0.00 | 0.00 | 33 | 1018.0 |
| 20260503202028 | 71 | 310 | 4.0 | 11.0 | 0.00 | 0.00 | 0.00 | 34 | 1018.0 |
| 20260503201541 | 71 | 338 | 4.0 | 9.0 | 0.00 | 0.00 | 0.00 | 37 | 1018.1 |
| 20260503201022 | 70 | 321 | 3.0 | 8.0 | 0.00 | 0.00 | 0.00 | 36 | 1018.2 |
| 20260503200523 | 70 | 329 | 2.0 | 9.0 | 0.00 | 0.00 | 0.00 | 36 | 1018.3 |
| 20260503200054 | 71 | 241 | 4.0 | 9.0 | 0.00 | 0.00 | 0.00 | 34 | 1018.4 |
| 20260503195524 | 71 | 300 | 2.0 | 8.0 | 0.00 | 0.00 | 0.00 | 38 | 1018.4 |
| 20260503195025 | 70 | 298 | 4.0 | 8.0 | 0.00 | 0.00 | 0.00 | 38 | 1018.7 |
| 20260503194556 | 70 | 214 | 2.0 | 7.0 | 0.00 | 0.00 | 0.00 | 37 | 1018.7 |
| 20260503194023 | 69 | 343 | 1.0 | 4.0 | 0.00 | 0.00 | 0.00 | 38 | 1018.7 |
| 20260503193527 | 69 | 131 | 1.0 | 12.0 | 0.00 | 0.00 | 0.00 | 37 | 1018.8 |
| 20260503193044 | 69 | 359 | 2.0 | 14.0 | 0.00 | 0.00 | 0.00 | 38 | 1018.9 |
| 20260503192524 | 69 | 24 | 7.0 | 14.0 | 0.00 | 0.00 | 0.00 | 36 | 1019.0 |
| 20260503192022 | 69 | 286 | 3.0 | 6.0 | 0.00 | 0.00 | 0.00 | 36 | 1019.2 |
| 20260503191546 | 68 | 293 | 2.0 | 6.0 | 0.00 | 0.00 | 0.00 | 36 | 1019.3 |
| 20260503191023 | 68 | 287 | 2.0 | 7.0 | 0.00 | 0.00 | 0.00 | 39 | 1019.4 |
| 20260503190519 | 67 | 224 | 2.0 | 7.0 | 0.00 | 0.00 | 0.00 | 39 | 1019.6 |
| 20260503190041 | 67 | 257 | 3.0 | 7.0 | 0.00 | 0.00 | 0.00 | 39 | 1019.6 |
| 20260503185522 | 67 | 0 | 2.0 | 9.0 | 0.00 | 0.00 | 0.00 | 38 | 1019.7 |
| 20260503185023 | 67 | 255 | 3.0 | 9.0 | 0.00 | 0.00 | 0.00 | 39 | 1019.7 |
| 20260503184541 | 67 | 287 | 2.0 | 8.0 | 0.00 | 0.00 | 0.00 | 37 | 1019.8 |
| 20260503184023 | 67 | 2 | 3.0 | 8.0 | 0.00 | 0.00 | 0.00 | 39 | 1019.7 |
| 20260503183523 | 67 | 324 | 3.0 | 7.0 | 0.00 | 0.00 | 0.00 | 40 | 1019.9 |
| 20260503183040 | 67 | 341 | 3.0 | 7.0 | 0.00 | 0.00 | 0.00 | 37 | 1019.8 |
| 20260503182521 | 67 | 310 | 1.0 | 5.0 | 0.00 | 0.00 | 0.00 | 41 | 1019.8 |
| 20260503182022 | 66 | 171 | 2.0 | 5.0 | 0.00 | 0.00 | 0.00 | 37 | 1019.9 |
| 20260503181542 | 65 | 0 | 1.0 | 10.0 | 0.00 | 0.00 | 0.00 | 39 | 1020.1 |
| 20260503181021 | 66 | 355 | 4.0 | 10.0 | 0.00 | 0.00 | 0.00 | 38 | 1020.2 |
| 20260503180522 | 66 | 355 | 2.0 | 5.0 | 0.00 | 0.00 | 0.00 | 40 | 1020.1 |
| 20260503180045 | 65 | 317 | 2.0 | 5.0 | 0.00 | 0.00 | 0.00 | 40 | 1020.2 |
| 20260503175522 | 66 | 309 | 2.0 | 5.0 | 0.00 | 0.00 | 0.00 | 39 | 1020.2 |
| 20260503175024 | 65 | 316 | 1.0 | 5.0 | 0.00 | 0.00 | 0.00 | 43 | 1020.3 |
| 20260503174543 | 65 | 333 | 1.0 | 5.0 | 0.00 | 0.00 | 0.00 | 39 | 1020.3 |
| 20260503174022 | 64 | 93 | 2.0 | 4.0 | 0.00 | 0.00 | 0.00 | 41 | 1020.5 |
| 20260503173523 | 64 | 0 | 1.0 | 3.0 | 0.00 | 0.00 | 0.00 | 41 | 1020.5 |
| 20260503173041 | 64 | 37 | 1.0 | 8.0 | 0.00 | 0.00 | 0.00 | 40 | 1020.7 |
| 20260503172522 | 64 | 80 | 2.0 | 8.0 | 0.00 | 0.00 | 0.00 | 44 | 1020.8 |
| 20260503172023 | 63 | 12 | 2.0 | 8.0 | 0.00 | 0.00 | 0.00 | 42 | 1020.8 |
| 20260503171546 | 64 | 4 | 2.0 | 8.0 | 0.00 | 0.00 | 0.00 | 42 | 1020.8 |
| 20260503171026 | 63 | 338 | 3.0 | 9.0 | 0.00 | 0.00 | 0.00 | 46 | 1020.8 |
| 20260503170523 | 63 | 302 | 4.0 | 9.0 | 0.00 | 0.00 | 0.00 | 44 | 1020.9 |
| 20260503150522 | 59 | 281 | 1.0 | 5.0 | 0.00 | 0.00 | 0.00 | 52 | 1021.8 |
| 20260503131025 | 48 | 7 | 3.0 | 9.0 | 0.00 | 0.00 | 0.00 | 86 | 1021.4 |
| 20260503130523 | 47 | 31 | 2.0 | 6.0 | 0.00 | 0.00 | 0.00 | 89 | 1021.3 |
| 20260503110524 | 40 | 127 | 0.0 | 2.0 | 0.00 | 0.00 | 0.00 | 88 | 1020.5 |
| 20260503081543 | 42 | 0 | 0.0 | 0.0 | 0.00 | 0.00 | 0.00 | 84 | 1019.1 |
| 20260503081024 | 43 | 0 | 0.0 | 0.0 | 0.00 | 0.00 | 0.00 | 84 | 1019.0 |
| 20260503080521 | 43 | 0 | 0.0 | 0.0 | 0.00 | 0.00 | 0.00 | 83 | 1019.0 |
| 20260503072522 | 44 | 0 | 0.0 | 1.0 | 0.00 | 0.00 | 0.00 | 83 | 1018.7 |
| 20260503072023 | 44 | 0 | 0.0 | 1.0 | 0.00 | 0.00 | 0.00 | 82 | 1018.7 |
| 20260503071602 | 44 | 8 | 0.0 | 2.0 | 0.00 | 0.00 | 0.00 | 82 | 1018.6 |
| 20260503071025 | 44 | 12 | 0.0 | 2.0 | 0.00 | 0.00 | 0.00 | 82 | 1018.6 |
| 20260503070521 | 44 | 33 | 0.0 | 2.0 | 0.00 | 0.00 | 0.00 | 81 | 1018.6 |
| 20260503055023 | 47 | 0 | 0.0 | 2.0 | 0.00 | 0.00 | 0.00 | 75 | 1018.4 |
| 20260503054555 | 47 | 0 | 0.0 | 2.0 | 0.00 | 0.00 | 0.00 | 75 | 1018.5 |
| 20260503054022 | 48 | 0 | 0.0 | 0.0 | 0.00 | 0.00 | 0.00 | 73 | 1018.4 |
| 20260503053523 | 48 | 0 | 0.0 | 0.0 | 0.00 | 0.00 | 0.00 | 73 | 1018.5 |
| 20260503053042 | 48 | 0 | 0.0 | 2.0 | 0.00 | 0.00 | 0.00 | 73 | 1018.5 |
| 20260503052521 | 48 | 0 | 0.0 | 2.0 | 0.00 | 0.00 | 0.00 | 73 | 1018.5 |
| 20260503052024 | 49 | 0 | 0.0 | 0.0 | 0.00 | 0.00 | 0.00 | 71 | 1018.4 |
| 20260503051541 | 49 | 0 | 0.0 | 2.0 | 0.00 | 0.00 | 0.00 | 71 | 1018.3 |
| 20260503051021 | 49 | 0 | 0.0 | 2.0 | 0.00 | 0.00 | 0.00 | 70 | 1018.3 |
| 20260503050522 | 50 | 345 | 0.0 | 2.0 | 0.00 | 0.00 | 0.00 | 70 | 1018.3 |
| 20260503050042 | 50 | 342 | 0.0 | 2.0 | 0.00 | 0.00 | 0.00 | 69 | 1018.1 |
| 20260503045522 | 50 | 339 | 0.0 | 2.0 | 0.00 | 0.00 | 0.00 | 68 | 1018.0 |
| 20260503045025 | 51 | 0 | 0.0 | 2.0 | 0.00 | 0.00 | 0.00 | 67 | 1018.0 |
| 20260503044540 | 51 | 0 | 0.0 | 2.0 | 0.00 | 0.00 | 0.00 | 67 | 1018.1 |